[[{"header":{"parameterUnit":"m.s-1","parameterCategory":1,"la1":30.2991,"la2":30.254,"lo1":-89.0895,"lo2":-89.0444,"dy":0.0017,"dx":0.0017,"nx":28,"ny":28,"refTime":"2023-11-01T21:00:00:Z","depth":0,"parameterNumber":2,"parameterNumberName":"U-component_of_WINDS"},"data":[0,0,0,0,0,0,0,0,0,0,0,0,0,0,0,0,0,0,0,0,0,0,0,0,0,0,0,0,0,0,0,0,0,0,0,0,0,0,0,0,0,0,0,0,0,0,0,0,0,0,0,0,0,0,0,0,0,0,-4.2741,-4.2742,0,-4.2786,-4.2786,-4.2787,-4.2649,-4.2645,-4.2641,-4.2637,-4.2682,-4.2687,-4.2692,0,0,0,0,0,0,0,0,0,0,0,0,0,-4.2536,-4.254,-4.2741,-4.2742,-4.2742,-4.2786,-4.2786,-4.2787,-4.265,-4.2645,-4.2639,-4.2635,-4.268,-4.2686,-4.2692,0,0,0,0,0,0,0,0,0,0,0,0,0,-4.2607,-4.2542,-4.2741,-4.2679,-4.2674,-4.2785,-4.2786,-4.2787,-4.2651,-4.2644,-4.2638,-4.2632,-4.2678,-4.2685,-4.2693,-4.2866,0,0,-4.2716,-4.272,0,0,0,0,0,0,0,0,-4.2603,-4.2615,-4.2688,-4.2684,-4.2678,-4.2705,-4.273,-4.2813,-4.2652,-4.266,-4.2636,-4.2629,-4.2695,-4.27,-4.2723,-4.2868,-4.287,-4.2717,-4.2722,-4.2725,-4.2727,0,0,0,0,0,0,0,-4.2599,-4.2612,-4.2759,-4.2689,-4.2683,-4.2649,-4.2652,-4.2745,-4.2712,-4.2658,-4.2649,-4.2656,-4.2691,-4.2716,-4.2723,-4.2871,-4.2717,-4.2724,-4.2728,-4.2731,-4.3159,-4.3165,0,0,0,0,0,0,-4.2602,-4.2609,-4.2757,-4.276,-4.2624,-4.2657,-4.2661,-4.2703,-4.271,-4.2705,-4.2661,-4.2649,-4.2706,-4.2714,-4.2724,-4.2925,-4.2725,-4.2732,-4.2736,-4.3152,-4.3161,-4.3168,0,0,0,0,0,0,-4.2598,-4.2617,-4.2755,-4.2682,-4.2697,-4.2668,-4.2716,-4.2707,-4.2732,-4.2712,-4.2706,-4.2693,-4.2701,-4.2713,-4.2831,-4.2925,-4.2736,-4.2743,-4.3144,-4.3155,-4.3164,-4.3331,0,0,0,0,0,0,-4.2593,-4.2616,-4.2682,-4.2684,-4.2701,-4.2863,-4.2722,-4.2712,-4.2745,-4.273,-4.274,-4.2736,-4.2697,-4.2821,-4.2839,-4.2932,-4.2748,-4.3136,-4.3149,-4.3161,-4.3317,-4.3345,-4.337,0,0,0,0,0,-4.2586,-4.2727,-4.2686,-4.2704,-4.2783,-4.2869,-4.2878,-4.2831,-4.2754,-4.2819,-4.2806,-4.2735,-4.2912,-4.2834,-4.2853,-4.295,-4.313,-4.3145,-4.316,-4.3305,-4.334,-4.3369,0,0,0,0,0,0,-4.2736,-4.2726,-4.268,-4.2827,-4.285,-4.2845,-4.2926,-4.287,-4.2915,-4.2899,-4.2838,-4.2841,-4.297,-4.2972,-4.2885,-4.3117,-4.3007,-4.3027,-4.3111,-4.3144,-4.317,-4.3166,-4.2755,0,0,0,0,0,-4.2786,-4.2857,-4.2845,-4.2975,-4.2989,-4.2956,-4.2992,-4.2953,-4.2974,-4.2983,-4.2979,-4.3003,-4.3063,-4.3104,-4.3158,-4.3317,-4.3316,-4.3393,-4.342,-4.3442,-4.3459,-4.3541,-4.3574,-4.3218,-4.3218,-4.3217,0,0,-4.289,-4.2894,-4.2942,-4.3005,-4.3018,-4.3092,-4.2965,-4.3049,-4.3103,-4.2996,-4.3106,-4.3105,-4.3127,-4.3266,-4.3327,-4.3271,-4.3557,-4.3461,-4.3479,-4.3484,-4.356,-4.3594,-4.3624,-4.3228,-4.3226,-4.3225,0,0,-4.3117,-4.3128,-4.3236,-4.3252,-4.3274,-4.3251,-4.3278,-4.3283,-4.3277,-4.3388,-4.3309,-4.3372,-4.3478,-4.3496,-4.3519,-4.3754,-4.3689,-4.3774,-4.3911,-4.3992,-4.402,-4.4045,-4.4126,-4.4156,-4.3791,-4.3792,-4.3792,0,-4.3243,-4.3351,-4.3299,-4.3388,-4.3418,-4.3325,-4.3434,-4.3452,-4.3491,-4.3513,-4.3451,-4.3581,-4.3589,-4.373,-4.3787,-4.381,-4.3837,-4.3771,-4.402,-4.4044,-4.4066,-4.4143,-4.4175,-4.3801,-4.38,-4.3799,-4.3798,0,-4.3505,-4.3581,-4.3666,-4.3706,-4.3745,-4.3844,-4.3806,-4.3852,-4.3811,-4.3795,-4.3908,-4.3915,-4.3969,-4.4,-4.3961,-4.4135,-4.41,-4.4031,-4.3918,-4.4111,-4.4182,-4.4212,-4.3816,-4.3812,-4.3809,-4.3807,0,0,-4.3825,-4.3835,-4.3867,-4.3883,-4.39,-4.3958,-4.4053,-4.4105,-4.4145,-4.4175,-4.4252,-4.4344,-4.4279,-4.4306,-4.4268,-4.4339,-4.4522,-4.426,-4.426,-4.4306,-4.4713,-4.4763,-4.4798,-4.4481,-4.4486,-4.449,-4.471,0,-4.4046,-4.4207,-4.4163,-4.4324,-4.4393,-4.4307,-4.4389,-4.4408,-4.4396,-4.4453,-4.4439,-4.4504,-4.4415,-4.443,-4.4498,-4.4486,-4.4602,-4.4469,-4.455,-4.4553,-4.4544,-4.4836,-4.4889,-4.5096,-4.4738,-4.4743,-4.4746,0,-4.4325,-4.4366,-4.4534,-4.4539,-4.4566,-4.4641,-4.4684,-4.474,-4.476,-4.4746,-4.4777,-4.4724,-4.4816,-4.4706,-4.4832,-4.4742,-4.4773,-4.4772,-4.4779,-4.4782,-4.4659,-4.4845,-4.5161,-4.5191,-4.479,-4.4786,-4.4783,0,-4.4539,-4.4636,-4.4748,-4.4765,-4.4775,-4.4829,-4.4835,-4.4849,-4.4883,-4.4922,-4.4944,-4.4994,-4.502,-4.506,-4.5022,-4.4945,-4.5153,-4.504,-4.5142,-4.5143,-4.5187,-4.5185,-4.5511,-4.5212,-4.5212,-4.5211,-4.5211,0,-4.4789,-4.4894,-4.4844,-4.4913,-4.5029,-4.4977,-4.5093,-4.5089,-4.5103,-4.5169,-4.5098,-4.5162,-4.5109,-4.5168,-4.5139,-4.5246,-4.526,-4.525,-4.5241,-4.5255,-4.5256,-4.5272,-4.5256,-4.522,-4.5218,-4.5216,-4.5215,0,-4.5046,-4.5017,-4.5133,-4.5133,-4.5135,-4.522,-4.5219,-4.5283,-4.5266,-4.5351,-4.5368,-4.5341,-4.5407,-4.5374,-4.5443,-4.5423,-4.5561,-4.5534,-4.5554,-4.5546,-4.5649,-4.5639,-4.5995,-4.6038,-4.5715,-4.5718,-4.5721,0,-4.5206,-4.5285,-4.5293,-4.5332,-4.5343,-4.5408,-4.5442,-4.5395,-4.5434,-4.5463,-4.5523,-4.5582,-4.5627,-4.5736,-4.5723,-4.5775,-4.5746,-4.5868,-4.5754,-4.5765,-4.5745,-4.574,-4.5747,-4.589,-4.5894,-4.5897,-4.5899,0,-4.5492,-4.5474,-4.5526,-4.5574,-4.5617,-4.5653,-4.5682,-4.5718,-4.5672,-4.5719,-4.5785,-4.582,-4.589,-4.5949,-4.5995,-4.6,-4.5942,-4.5936,-4.5962,-4.5975,-4.5983,-4.5978,-4.5613,-4.5927,-4.5924,-4.5922,-4.5921,-4.592,-4.5703,-4.5769,-4.5784,-4.5845,-4.5862,-4.5891,-4.595,-4.5941,-4.5995,-4.6048,-4.6018,-4.6095,-4.6113,-4.6167,-4.6181,-4.624,-4.6192,-4.623,-4.6239,-4.6249,-4.6262,-4.5976,-4.6249,-4.6248,-4.6247,-4.6246,-4.6246,0,-4.5983,-4.5989,-4.6046,-4.6089,-4.6136,-4.6078,-4.6108,-4.6151,-4.622,-4.6242,-4.6287,-4.6363,-4.6421,-4.6413,-4.6465,-4.6514,-4.6489,-4.6529,-4.6524,-4.6526,-4.6303,-4.6274,-4.6549,-4.6549,-4.6549,-4.6549,-4.6549,-4.6549,-4.6134,-4.6241,-4.6225,-4.634,-4.6345,-4.642,-4.6441,-4.6468,-4.6484,-4.6572,-4.6619,-4.6614,-4.6623,-4.6676,-4.6726,-4.6722,-4.6744,-4.6794,-4.678,-4.6572,-4.6542,-4.6513,-4.6485,-4.68,-4.68,-4.6997,-4.6999,-4.7]},{"header":{"parameterUnit":"m.s-1","parameterCategory":1,"la1":30.2991,"la2":30.254,"lo1":-89.0895,"lo2":-89.0444,"dy":0.0017,"dx":0.0017,"nx":28,"ny":28,"refTime":"2023-11-01T21:00:00:Z","depth":0,"parameterNumber":3,"parameterNumberName":"V-component_of_WINDS"},"data":[0,0,0,0,0,0,0,0,0,0,0,0,0,0,0,0,0,0,0,0,0,0,0,0,0,0,0,0,0,0,0,0,0,0,0,0,0,0,0,0,0,0,0,0,0,0,0,0,0,0,0,0,0,0,0,0,0,0,-1.4879,-1.488,0,-1.4955,-1.4955,-1.4956,-1.5001,-1.5001,-1.5002,-1.5002,-1.5078,-1.5079,-1.5081,0,0,0,0,0,0,0,0,0,0,0,0,0,-1.4771,-1.4773,-1.4879,-1.488,-1.4881,-1.4954,-1.4955,-1.4957,-1.5001,-1.5001,-1.5002,-1.5002,-1.5077,-1.5079,-1.5081,0,0,0,0,0,0,0,0,0,0,0,0,0,-1.4829,-1.4773,-1.4879,-1.4912,-1.4916,-1.4954,-1.4956,-1.4957,-1.5001,-1.5001,-1.5002,-1.5002,-1.5076,-1.5079,-1.5082,-1.5092,0,0,-1.509,-1.5091,0,0,0,0,0,0,0,0,-1.4826,-1.4833,-1.4906,-1.491,-1.4914,-1.4969,-1.4945,-1.5002,-1.5001,-1.4969,-1.5002,-1.5002,-1.5041,-1.5047,-1.506,-1.5096,-1.5099,-1.509,-1.5092,-1.5093,-1.5094,0,0,0,0,0,0,0,-1.4822,-1.483,-1.4909,-1.4907,-1.4912,-1.4922,-1.4931,-1.4956,-1.5002,-1.4972,-1.4975,-1.4983,-1.5043,-1.5057,-1.5062,-1.51,-1.509,-1.5093,-1.5094,-1.5095,-1.5146,-1.5146,0,0,0,0,0,0,-1.4813,-1.4826,-1.4907,-1.4911,-1.487,-1.4924,-1.4934,-1.4951,-1.5002,-1.501,-1.4983,-1.4985,-1.5053,-1.5059,-1.5065,-1.508,-1.5093,-1.5096,-1.5097,-1.5147,-1.5146,-1.5146,0,0,0,0,0,0,-1.481,-1.4819,-1.4904,-1.487,-1.4881,-1.4926,-1.4945,-1.4952,-1.4967,-1.5011,-1.5019,-1.4989,-1.5053,-1.5061,-1.5085,-1.5083,-1.5097,-1.5099,-1.5147,-1.5147,-1.5146,-1.511,0,0,0,0,0,0,-1.4807,-1.4818,-1.4824,-1.487,-1.4883,-1.4923,-1.4945,-1.4954,-1.4971,-1.4975,-1.5019,-1.5026,-1.5054,-1.5081,-1.5088,-1.5087,-1.5101,-1.5147,-1.5147,-1.5146,-1.5112,-1.5108,-1.5106,0,0,0,0,0,-1.4803,-1.4811,-1.4824,-1.4833,-1.4891,-1.4923,-1.493,-1.4962,-1.4971,-1.4976,-1.5004,-1.5025,-1.5082,-1.5083,-1.5091,-1.5091,-1.5148,-1.5147,-1.5146,-1.5113,-1.5109,-1.5106,0,0,0,0,0,0,-1.4764,-1.4817,-1.4833,-1.4856,-1.4884,-1.493,-1.4938,-1.4958,-1.4984,-1.4986,-1.5024,-1.5034,-1.5053,-1.5075,-1.5074,-1.5103,-1.5117,-1.5118,-1.5089,-1.5085,-1.5083,-1.5077,-1.5104,0,0,0,0,0,-1.4758,-1.478,-1.4825,-1.4841,-1.4855,-1.4894,-1.4909,-1.4931,-1.4962,-1.4974,-1.5004,-1.5033,-1.5057,-1.5073,-1.5098,-1.5115,-1.5124,-1.5119,-1.5116,-1.5113,-1.5114,-1.5122,-1.512,-1.5144,-1.5144,-1.5144,0,0,-1.4746,-1.4778,-1.4789,-1.4834,-1.4859,-1.488,-1.4904,-1.4925,-1.4941,-1.4977,-1.5002,-1.5024,-1.5058,-1.5078,-1.5089,-1.5097,-1.5109,-1.5112,-1.511,-1.5112,-1.5121,-1.5119,-1.5117,-1.5143,-1.5144,-1.5144,0,0,-1.4734,-1.4761,-1.4777,-1.48,-1.4838,-1.4863,-1.4866,-1.4909,-1.4926,-1.495,-1.4977,-1.4996,-1.5038,-1.5061,-1.5078,-1.5072,-1.5091,-1.5079,-1.5064,-1.5072,-1.507,-1.5068,-1.5065,-1.5064,-1.5079,-1.5079,-1.5079,0,-1.4714,-1.4748,-1.4782,-1.4802,-1.482,-1.4853,-1.4868,-1.489,-1.4933,-1.4944,-1.4952,-1.5004,-1.5029,-1.5054,-1.5053,-1.5066,-1.507,-1.5074,-1.5068,-1.5066,-1.5066,-1.5063,-1.5062,-1.5077,-1.5077,-1.5078,-1.5078,0,-1.4721,-1.4744,-1.4752,-1.4792,-1.4811,-1.4828,-1.4863,-1.4878,-1.4898,-1.4922,-1.4945,-1.4977,-1.5008,-1.5015,-1.5035,-1.5043,-1.5046,-1.5061,-1.5075,-1.5061,-1.5059,-1.5058,-1.5075,-1.5075,-1.5076,-1.5076,0,0,-1.4689,-1.4746,-1.4748,-1.4766,-1.4809,-1.4826,-1.4844,-1.4874,-1.4886,-1.4913,-1.4928,-1.4962,-1.4975,-1.4994,-1.5016,-1.5023,-1.5015,-1.5037,-1.5038,-1.5031,-1.5023,-1.5012,-1.501,-1.5028,-1.5028,-1.5028,-1.502,0,-1.4683,-1.4718,-1.4747,-1.477,-1.4791,-1.4821,-1.4836,-1.4863,-1.4885,-1.4905,-1.493,-1.4952,-1.4968,-1.498,-1.4988,-1.5014,-1.5014,-1.5015,-1.5041,-1.5042,-1.5031,-1.501,-1.4998,-1.4989,-1.502,-1.502,-1.502,0,-1.4682,-1.4708,-1.4733,-1.4771,-1.4781,-1.4794,-1.4823,-1.4842,-1.4872,-1.4887,-1.4907,-1.493,-1.4949,-1.4961,-1.4986,-1.4987,-1.4999,-1.5013,-1.5013,-1.5017,-1.503,-1.5012,-1.4988,-1.4986,-1.5019,-1.5019,-1.5019,0,-1.4655,-1.4696,-1.4716,-1.473,-1.4775,-1.4784,-1.4803,-1.4833,-1.4849,-1.4874,-1.4884,-1.4911,-1.4925,-1.4945,-1.4974,-1.498,-1.4995,-1.501,-1.5008,-1.5007,-1.501,-1.5009,-1.4986,-1.5018,-1.5018,-1.5018,-1.5018,0,-1.4645,-1.4659,-1.4704,-1.4716,-1.4731,-1.4764,-1.4779,-1.48,-1.4826,-1.4842,-1.487,-1.4884,-1.4922,-1.494,-1.4962,-1.4979,-1.4986,-1.4998,-1.5004,-1.4995,-1.4993,-1.5004,-1.5005,-1.5018,-1.5018,-1.5018,-1.5018,0,-1.4618,-1.4649,-1.4672,-1.4712,-1.4722,-1.4732,-1.4766,-1.4778,-1.4801,-1.482,-1.4827,-1.4863,-1.4885,-1.4916,-1.4948,-1.4963,-1.4976,-1.4986,-1.4966,-1.497,-1.4965,-1.4965,-1.4948,-1.4947,-1.4979,-1.4979,-1.4978,0,-1.461,-1.4621,-1.4662,-1.4675,-1.4693,-1.4713,-1.4728,-1.4761,-1.4776,-1.4809,-1.4817,-1.4841,-1.4863,-1.4897,-1.4925,-1.495,-1.4959,-1.4952,-1.4963,-1.4954,-1.4958,-1.4957,-1.4958,-1.4949,-1.4948,-1.4948,-1.4948,0,-1.4592,-1.4606,-1.4628,-1.4654,-1.4672,-1.4694,-1.4718,-1.4726,-1.4763,-1.4778,-1.4801,-1.4818,-1.485,-1.4873,-1.4901,-1.492,-1.4939,-1.4944,-1.4944,-1.4936,-1.4923,-1.4929,-1.4958,-1.4944,-1.4944,-1.4945,-1.4945,-1.4945,-1.4574,-1.4584,-1.4614,-1.4637,-1.4658,-1.4678,-1.4691,-1.4715,-1.4735,-1.4764,-1.4781,-1.4803,-1.4831,-1.4869,-1.4887,-1.4904,-1.4912,-1.4913,-1.4913,-1.4913,-1.4909,-1.492,-1.4909,-1.4909,-1.4909,-1.4909,-1.4909,0,-1.4557,-1.4577,-1.4597,-1.4629,-1.4646,-1.4663,-1.4689,-1.4702,-1.4721,-1.4745,-1.4765,-1.479,-1.4813,-1.4842,-1.4866,-1.4874,-1.4883,-1.4879,-1.4879,-1.4882,-1.4901,-1.4898,-1.4871,-1.4871,-1.4871,-1.4871,-1.4871,-1.4871,-1.455,-1.4568,-1.4585,-1.4613,-1.4633,-1.4654,-1.4668,-1.4686,-1.4706,-1.4733,-1.4751,-1.477,-1.4796,-1.4821,-1.4842,-1.485,-1.4857,-1.485,-1.486,-1.4878,-1.4881,-1.4884,-1.4881,-1.4851,-1.4851,-1.484,-1.484,-1.484]}]]